Snowfall_Accumulation
nan nan nan nan nan nan nan nan nan nan nan nan nan nan nan nan nan 0.0 0.0 0.0 0.0 nan nan 0.0 0.0 0.0 0.0 0.0 0.0 0.0 0.0 0.0 0.0 0.0 0.0 0.0 0.0 0.0 0.0 0.0 0.0 0.0 0.0 0.0 0.0
nan nan nan nan nan nan nan nan nan nan nan nan nan nan nan nan 0.0 0.0 nan nan nan nan 0.0 0.0 0.0 0.0 0.0 0.0 0.0 0.0 0.0 0.0 0.0 0.0 0.0 0.0 0.0 0.0 0.0 0.0 0.0 0.0 0.0 0.0 0.0
nan nan nan nan nan nan nan nan nan nan nan nan nan nan nan 0.0 0.0 0.0 nan nan nan 0.0 0.0 0.0 0.0 0.0 0.0 0.0 0.0 0.0 0.0 0.0 0.0 0.0 0.0 0.0 0.0 0.0 0.0 0.0 0.0 0.0 0.0 0.0 0.0
nan nan nan nan nan nan nan nan nan nan nan nan nan nan nan 0.0 0.0 0.0 nan nan nan 0.0 0.0 0.0 0.0 0.0 0.0 0.0 0.0 0.0 0.0 0.0 0.0 0.0 0.0 0.0 0.0 0.0 0.0 0.0 0.0 0.0 0.0 0.0 0.0
nan nan nan nan nan nan nan nan nan nan nan nan nan nan 0.0 0.0 0.0 0.0 nan nan 0.0 0.0 0.0 0.0 0.0 0.0 0.0 0.0 0.0 0.0 0.0 0.0 0.0 0.0 0.0 0.0 0.0 0.0 0.0 0.0 0.0 0.0 0.0 0.0 0.0
nan nan nan nan nan nan nan nan nan nan nan nan nan nan 0.0 0.0 0.0 0.0 0.0 0.0 0.0 0.0 0.0 0.0 0.0 0.0 0.0 0.0 0.0 0.0 0.0 0.0 0.0 0.0 0.0 0.0 0.0 0.0 0.0 0.0 0.0 0.0 0.0 0.0 0.0
nan nan nan nan nan nan nan nan nan nan nan nan nan 0.0 0.0 0.0 0.0 0.0 0.0 0.0 0.0 0.0 0.0 0.0 0.0 0.0 0.0 0.0 0.0 0.0 0.0 0.0 0.0 0.0 0.0 0.0 0.0 0.1 0.0 0.0 0.0 0.0 0.0 0.0 0.0
nan nan nan nan nan nan nan nan nan nan nan nan nan 0.0 0.0 0.0 0.0 0.0 0.0 0.0 0.0 0.0 0.0 0.0 0.0 0.0 0.0 0.0 0.0 0.0 0.0 0.0 0.0 0.0 0.0 0.0 0.1 0.0 0.0 0.0 0.0 0.0 0.0 0.0 0.0
nan nan nan nan nan nan nan nan nan nan nan nan 0.0 0.0 0.0 nan 0.0 0.0 0.0 0.0 0.0 0.0 0.0 0.0 0.0 0.0 0.0 0.0 0.0 0.0 0.1 0.0 0.0 0.0 0.0 0.0 0.6 0.3 0.1 0.0 0.0 0.0 0.0 0.0 0.0
nan nan nan nan nan nan nan nan nan nan 0.0 0.0 0.0 0.0 0.0 0.0 0.0 0.0 0.0 0.0 0.0 0.0 0.0 0.0 0.0 0.0 0.0 0.0 0.4 0.4 0.1 0.1 0.1 0.0 0.0 0.3 1.4 0.9 0.7 0.3 0.4 0.2 0.1 0.1 0.0
nan nan nan nan nan nan 0.0 0.0 0.0 0.0 0.0 0.0 0.0 0.0 0.0 0.0 0.0 0.0 0.0 0.0 0.0 0.0 0.0 0.0 0.0 0.1 0.0 0.1 0.7 0.6 0.8 0.6 0.0 0.0 0.1 0.5 2.0 2.7 2.5 1.8 1.9 1.2 0.7 0.6 0.5
nan nan nan nan nan nan 0.0 0.0 0.0 0.0 0.0 0.0 0.0 0.0 0.0 0.0 0.0 0.0 0.0 0.0 0.0 0.0 0.0 0.0 0.0 0.0 0.0 0.0 0.1 0.1 0.9 0.6 0.0 0.0 0.0 0.6 2.1 2.9 1.5 2.6 2.9 2.9 2.4 1.9 1.2
nan nan nan nan nan 0.0 0.0 0.0 0.0 0.0 0.0 0.0 0.0 0.0 0.0 0.0 0.0 0.0 0.0 0.0 0.0 0.0 0.0 0.0 0.0 0.0 0.0 0.0 0.2 0.1 0.9 0.3 0.6 0.0 0.0 0.0 0.4 2.5 2.6 0.5 0.7 1.2 1.8 2.1 2.8
nan nan nan nan nan 0.0 0.0 0.0 0.0 0.0 0.0 0.0 0.0 0.0 0.0 0.0 0.0 0.0 0.0 0.0 0.0 0.0 0.0 0.0 0.0 0.0 0.0 0.1 0.2 0.2 0.0 0.1 0.2 0.9 0.9 0.1 1.7 1.9 1.4 0.2 0.3 0.6 0.9 1.5 1.6
nan nan nan nan 0.0 0.0 0.0 0.0 0.0 0.0 0.9 0.0 0.0 0.0 0.0 0.0 0.0 0.0 0.0 0.0 0.0 0.0 0.0 0.0 0.0 0.0 0.0 0.1 0.0 0.5 0.0 0.1 0.0 0.2 0.3 0.0 1.0 4.2 0.5 1.1 0.6 0.8 0.5 0.6 0.8
nan nan nan 0.0 0.0 0.0 0.0 0.0 0.0 0.1 4.0 0.0 0.0 0.0 0.0 0.0 0.0 0.0 0.0 0.0 0.0 0.0 0.0 0.0 0.0 0.0 0.0 0.0 0.0 0.0 0.0 0.0 0.1 0.3 4.9 0.0 0.0 6.9 1.0 2.5 0.3 0.4 0.8 1.2 1.2
nan nan nan 0.0 0.0 0.0 0.0 0.0 0.0 0.4 0.0 0.0 0.0 0.0 0.0 0.0 0.0 0.0 0.0 0.0 0.1 0.9 0.0 0.0 0.0 0.0 0.0 0.0 0.0 0.1 0.4 2.8 1.1 4.0 2.0 0.7 0.9 11.3 1.7 1.8 1.7 1.3 0.7 0.8 0.8
nan nan nan 0.0 0.0 0.0 0.0 0.0 0.0 0.0 0.0 0.0 0.0 0.0 0.0 0.0 0.0 0.0 0.0 0.0 0.0 0.1 0.6 1.2 0.4 0.0 0.0 0.1 0.4 0.0 0.6 4.1 10.3 3.1 1.9 1.4 10.3 10.7 3.7 2.1 1.7 1.3 1.6 0.5 0.7
nan 0.0 0.0 0.0 0.0 0.0 0.0 0.1 0.2 0.0 0.0 0.0 0.0 0.0 0.0 0.0 0.0 0.0 0.0 0.0 0.1 0.2 4.6 2.0 0.4 0.0 0.0 0.0 0.0 0.1 0.5 0.3 7.0 0.3 1.5 5.8 7.0 2.9 1.9 1.7 1.6 2.0 1.0 1.6 1.4
0.0 0.0 0.0 0.0 0.0 0.0 0.0 nan 0.0 0.0 0.0 0.0 0.0 0.0 0.1 0.0 0.0 0.0 0.0 0.0 0.0 0.2 0.1 1.4 3.5 0.0 0.0 0.0 0.0 0.4 0.6 2.2 2.0 7.4 4.1 8.2 4.3 4.3 2.2 3.8 3.0 2.9 3.2 2.9 1.6
0.0 0.0 0.0 0.0 0.0 0.0 0.3 0.1 0.0 0.0 0.0 0.0 0.0 0.0 0.0 0.3 0.1 0.0 0.1 0.2 0.1 0.0 0.0 0.1 2.0 0.3 0.0 0.1 0.2 0.2 3.5 2.4 3.6 4.9 8.6 4.6 7.8 6.7 3.9 3.7 4.1 3.9 3.6 4.4 3.5
0.0 0.1 0.0 0.0 0.0 0.0 0.2 0.0 nan 0.0 0.0 0.0 0.0 0.0 0.1 0.2 0.5 0.0 0.3 0.1 0.1 0.1 0.7 0.2 3.5 2.6 0.2 0.0 0.0 0.2 2.3 3.2 4.9 2.1 5.0 8.7 13.9 5.1 3.7 3.4 2.2 2.8 3.7 3.5 3.7
0.0 0.0 0.0 0.0 0.2 0.0 0.0 0.0 0.0 0.0 0.0 0.0 0.0 0.0 0.1 0.2 4.3 0.0 0.2 0.0 0.0 0.2 1.0 1.3 1.6 2.8 1.1 1.4 0.3 0.5 1.0 2.4 2.9 6.8 4.9 11.8 6.4 4.3 5.3 4.9 4.6 4.7 3.9 3.8 4.1
0.0 0.3 0.0 0.0 0.0 0.0 0.2 0.2 0.0 0.0 0.0 0.0 0.0 0.0 0.3 0.3 0.2 3.0 0.2 0.0 0.0 0.0 nan nan 5.3 4.3 6.6 2.4 1.6 3.0 0.5 0.4 2.4 10.1 6.2 5.2 6.6 5.5 5.3 5.8 5.8 6.0 5.1 5.4 5.4
0.1 0.7 0.0 0.5 0.1 0.1 0.1 0.1 0.1 0.2 0.0 0.0 0.2 0.5 3.2 6.5 0.3 0.1 0.0 0.0 0.0 nan 0.1 0.9 5.3 1.3 1.8 3.5 2.2 3.3 1.3 0.8 1.9 2.5 5.1 3.1 3.1 9.6 7.7 7.8 8.3 7.1 5.1 4.6 5.1
0.5 0.7 0.5 0.5 0.1 0.1 0.1 2.0 0.3 0.0 1.2 0.6 1.3 0.7 0.5 5.5 1.5 5.5 3.1 0.7 1.3 0.2 0.6 2.0 7.4 2.6 3.5 2.2 1.6 5.1 2.7 2.6 2.1 2.5 3.9 4.5 4.6 8.9 6.5 5.1 4.2 4.2 4.2 4.4 4.0
0.0 0.1 0.1 nan 0.1 1.9 1.2 0.4 0.3 0.2 0.1 0.2 2.3 1.7 1.5 0.1 0.2 0.4 0.7 1.0 2.2 2.7 3.1 7.2 6.4 8.0 8.9 1.6 2.9 8.9 4.1 1.9 2.7 3.0 5.4 8.1 9.0 6.8 6.5 5.5 6.4 5.4 4.4 4.1 3.6
Water_Equivalent
nan nan nan nan nan nan nan nan nan nan nan nan nan nan nan nan nan 0.00 0.00 0.00 0.00 nan nan 0.00 0.00 0.00 0.00 0.00 0.00 0.00 0.00 0.00 0.00 0.00 0.00 0.00 0.00 0.00 0.00 0.00 0.00 0.00 0.00 0.00 0.00
nan nan nan nan nan nan nan nan nan nan nan nan nan nan nan nan 0.00 0.00 nan nan nan nan 0.00 0.00 0.00 0.00 0.00 0.00 0.00 0.00 0.00 0.00 0.00 0.00 0.00 0.00 0.00 0.00 0.00 0.00 0.00 0.00 0.00 0.00 0.00
nan nan nan nan nan nan nan nan nan nan nan nan nan nan nan 0.00 0.00 0.00 nan nan nan 0.00 0.00 0.00 0.00 0.00 0.00 0.00 0.00 0.00 0.00 0.00 0.00 0.00 0.00 0.00 0.00 0.00 0.00 0.00 0.00 0.00 0.00 0.00 0.00
nan nan nan nan nan nan nan nan nan nan nan nan nan nan nan 0.00 0.00 0.00 nan nan nan 0.00 0.00 0.00 0.00 0.00 0.00 0.00 0.00 0.00 0.00 0.00 0.00 0.00 0.00 0.00 0.00 0.00 0.00 0.00 0.00 0.00 0.00 0.00 0.00
nan nan nan nan nan nan nan nan nan nan nan nan nan nan 0.00 0.00 0.00 0.00 nan nan 0.00 0.00 0.00 0.00 0.00 0.00 0.00 0.00 0.00 0.00 0.00 0.00 0.00 0.00 0.00 0.00 0.00 0.00 0.00 0.00 0.00 0.00 0.00 0.00 0.00
nan nan nan nan nan nan nan nan nan nan nan nan nan nan 0.00 0.00 0.00 0.00 0.00 0.00 0.00 0.00 0.00 0.00 0.00 0.00 0.00 0.00 0.00 0.00 0.00 0.00 0.00 0.00 0.00 0.00 0.00 0.00 0.00 0.00 0.00 0.00 0.00 0.00 0.00
nan nan nan nan nan nan nan nan nan nan nan nan nan 0.00 0.00 0.00 0.00 0.00 0.00 0.00 0.00 0.00 0.00 0.00 0.00 0.00 0.00 0.00 0.00 0.00 0.00 0.00 0.00 0.00 0.00 0.00 0.00 0.01 0.00 0.00 0.00 0.00 0.00 0.00 0.00
nan nan nan nan nan nan nan nan nan nan nan nan nan 0.00 0.00 0.00 0.00 0.00 0.00 0.00 0.00 0.00 0.00 0.00 0.00 0.00 0.00 0.00 0.00 0.00 0.00 0.00 0.00 0.00 0.00 0.00 0.01 0.00 0.00 0.00 0.00 0.00 0.00 0.00 0.00
nan nan nan nan nan nan nan nan nan nan nan nan 0.00 0.00 0.00 nan 0.00 0.00 0.00 0.00 0.00 0.00 0.00 0.00 0.00 0.00 0.00 0.00 0.00 0.00 0.01 0.00 0.00 0.00 0.00 0.00 0.07 0.03 0.01 0.00 0.00 0.00 0.00 0.00 0.00
nan nan nan nan nan nan nan nan nan nan 0.00 0.00 0.00 0.00 0.00 0.00 0.00 0.00 0.00 0.00 0.00 0.00 0.00 0.00 0.00 0.00 0.00 0.00 0.06 0.06 0.02 0.01 0.02 0.00 0.00 0.04 0.15 0.09 0.07 0.03 0.03 0.02 0.01 0.01 0.00
nan nan nan nan nan nan 0.00 0.00 0.00 0.00 0.00 0.00 0.00 0.00 0.00 0.00 0.00 0.00 0.00 0.00 0.00 0.00 0.00 0.00 0.00 0.02 0.00 0.02 0.14 0.12 0.13 0.08 0.01 0.00 0.01 0.06 0.19 0.29 0.26 0.16 0.15 0.09 0.05 0.05 0.04
nan nan nan nan nan nan 0.00 0.00 0.00 0.00 0.00 0.00 0.00 0.00 0.00 0.00 0.00 0.00 0.00 0.00 0.00 0.00 0.00 0.00 0.00 0.00 0.00 0.00 0.01 0.03 0.15 0.09 0.00 0.00 0.00 0.06 0.19 0.31 0.17 0.25 0.24 0.23 0.18 0.14 0.09
nan nan nan nan nan 0.00 0.00 0.00 0.00 0.00 0.00 0.00 0.00 0.00 0.00 0.00 0.00 0.00 0.00 0.00 0.00 0.00 0.00 0.00 0.00 0.00 0.00 0.01 0.03 0.03 0.15 0.05 0.09 0.00 0.00 0.00 0.04 0.25 0.31 0.06 0.07 0.11 0.15 0.17 0.22
nan nan nan nan nan 0.00 0.00 0.00 0.00 0.00 0.00 0.00 0.00 0.00 0.00 0.00 0.00 0.00 0.00 0.00 0.00 0.00 0.00 0.00 0.00 0.00 0.00 0.01 0.03 0.03 0.01 0.02 0.03 0.15 0.12 0.02 0.19 0.16 0.15 0.03 0.03 0.05 0.07 0.12 0.13
nan nan nan nan 0.00 0.00 0.00 0.00 0.00 0.00 0.35 0.00 0.00 0.00 0.00 0.00 0.00 0.00 0.00 0.00 0.00 0.00 0.00 0.01 0.00 0.00 0.01 0.02 0.01 0.09 0.00 0.01 0.01 0.04 0.06 0.01 0.15 0.32 0.04 0.08 0.05 0.06 0.05 0.05 0.07
nan nan nan 0.00 0.00 0.00 0.00 0.00 0.00 0.04 1.36 0.00 0.00 0.00 0.00 0.00 0.00 0.00 0.00 0.00 0.00 0.00 0.00 0.01 0.00 0.00 0.00 0.00 0.00 0.00 0.00 0.00 0.02 0.05 0.58 0.00 0.00 0.37 0.06 0.17 0.03 0.04 0.07 0.10 0.11
nan nan nan 0.00 0.00 0.00 0.00 0.00 0.02 0.15 0.00 0.00 0.01 0.00 0.00 0.00 0.00 0.00 0.00 0.00 0.02 0.22 0.00 0.00 0.00 0.00 0.00 0.00 0.00 0.01 0.07 0.40 0.15 0.51 0.20 0.05 0.08 0.67 0.12 0.14 0.14 0.11 0.06 0.07 0.08
nan nan nan 0.00 0.00 0.00 0.00 0.00 0.01 0.00 0.00 0.00 0.00 0.00 0.00 0.00 0.00 0.00 0.00 0.00 0.00 0.02 0.09 0.21 0.15 0.00 0.00 0.01 0.07 0.00 0.08 0.44 0.66 0.31 0.17 0.13 0.63 0.70 0.30 0.19 0.16 0.12 0.15 0.05 0.07
nan 0.00 0.00 0.00 0.00 0.00 0.00 0.05 0.06 0.00 0.00 0.00 0.00 0.00 0.00 0.00 0.00 0.00 0.00 0.00 0.01 0.03 0.45 0.23 0.04 0.00 0.00 0.00 0.00 0.01 0.07 0.04 0.65 0.04 0.19 0.44 0.49 0.23 0.18 0.14 0.14 0.17 0.09 0.13 0.11
0.00 0.00 0.00 0.00 0.00 0.00 0.00 nan 0.00 0.00 0.00 0.00 0.00 0.00 0.01 0.00 0.00 0.00 0.00 0.00 0.01 0.03 0.02 0.21 0.33 0.00 0.00 0.00 0.01 0.06 0.08 0.26 0.24 0.63 0.31 0.50 0.23 0.26 0.15 0.26 0.23 0.21 0.24 0.23 0.13
0.00 0.00 0.00 0.00 0.00 0.00 0.09 0.02 0.00 0.00 0.00 0.00 0.00 0.00 0.00 0.03 0.01 0.00 0.01 0.02 0.02 0.00 0.00 0.02 0.22 0.04 0.00 0.01 0.03 0.04 0.48 0.35 0.53 0.62 0.71 0.30 0.43 0.47 0.27 0.25 0.28 0.28 0.27 0.33 0.27
0.00 0.02 0.00 0.00 0.00 0.00 0.06 0.00 nan 0.00 0.00 0.00 0.00 0.00 0.02 0.02 0.07 0.00 0.03 0.01 0.02 0.01 0.11 0.03 0.44 0.31 0.02 0.00 0.00 0.02 0.30 0.42 0.52 0.20 0.51 0.83 0.91 0.42 0.29 0.26 0.17 0.21 0.28 0.28 0.30
0.00 0.00 0.00 0.00 0.05 0.00 0.00 0.00 0.00 0.00 0.00 0.00 0.00 0.00 0.02 0.03 0.48 0.00 0.04 0.00 0.00 0.03 0.14 0.18 0.18 0.25 0.10 0.14 0.04 0.07 0.14 0.34 0.41 0.86 0.50 1.03 0.45 0.36 0.46 0.42 0.39 0.39 0.34 0.33 0.34
0.00 0.08 0.00 0.00 0.00 0.01 0.03 0.03 0.00 0.00 0.00 0.00 0.00 0.00 0.05 0.05 0.03 0.41 0.03 0.01 0.00 0.00 nan nan 0.65 0.44 0.59 0.20 0.16 0.29 0.06 0.05 0.28 1.11 0.56 0.42 0.44 0.43 0.42 0.44 0.49 0.51 0.45 0.48 0.49
0.02 0.13 0.01 0.13 0.03 0.02 0.03 0.04 0.03 0.04 0.00 0.00 0.03 0.08 0.36 0.82 0.05 0.03 0.01 0.00 0.00 nan 0.02 0.13 0.58 0.13 0.19 0.32 0.20 0.26 0.13 0.09 0.17 0.18 0.42 0.20 0.22 0.78 0.59 0.58 0.64 0.57 0.43 0.38 0.42
0.13 0.16 0.11 0.10 0.03 0.02 0.04 0.43 0.04 0.00 0.19 0.10 0.19 0.09 0.08 0.75 0.20 0.65 0.43 0.12 0.16 0.03 0.07 0.32 0.84 0.26 0.32 0.13 0.10 0.39 0.25 0.25 0.25 0.18 0.29 0.33 0.32 0.72 0.51 0.40 0.31 0.31 0.33 0.33 0.30
0.00 0.01 0.03 nan 0.03 0.35 0.23 0.06 0.05 0.04 0.01 0.04 0.32 0.30 0.28 0.01 0.04 0.06 0.10 0.12 0.26 0.32 0.38 0.97 0.81 0.90 0.85 0.10 0.25 0.79 0.27 0.12 0.19 0.22 0.39 0.65 0.64 0.51 0.48 0.40 0.47 0.40 0.31 0.28 0.26
SL_Ratio
nan nan nan nan nan nan nan nan nan nan nan nan nan nan nan nan nan nan nan nan nan nan nan nan nan nan nan nan nan nan nan nan nan nan nan nan nan nan nan nan nan nan nan nan nan
nan nan nan nan nan nan nan nan nan nan nan nan nan nan nan nan nan nan nan nan nan nan nan nan nan nan nan nan nan nan nan nan nan nan nan nan nan nan nan nan nan nan nan nan nan
nan nan nan nan nan nan nan nan nan nan nan nan nan nan nan nan nan nan nan nan nan nan nan nan nan nan nan nan nan nan nan nan nan nan nan nan nan nan nan nan nan nan nan nan nan
nan nan nan nan nan nan nan nan nan nan nan nan nan nan nan nan nan nan nan nan nan nan nan nan nan nan nan nan nan nan nan nan nan nan nan nan nan nan nan nan nan nan nan nan nan
nan nan nan nan nan nan nan nan nan nan nan nan nan nan nan nan nan nan nan nan nan nan nan nan nan nan nan nan nan nan nan nan nan nan nan nan nan nan nan nan nan nan nan nan nan
nan nan nan nan nan nan nan nan nan nan nan nan nan nan nan nan nan nan nan nan nan nan nan nan nan nan nan nan nan nan nan nan nan nan nan nan nan nan nan nan nan nan nan nan nan
nan nan nan nan nan nan nan nan nan nan nan nan nan nan nan nan nan nan nan nan nan nan nan nan nan nan nan nan nan nan nan nan nan nan nan nan nan 10.0 nan nan nan nan nan nan nan
nan nan nan nan nan nan nan nan nan nan nan nan nan nan nan nan nan nan nan nan nan nan nan nan nan nan nan nan nan nan nan nan nan nan nan nan 11.0 9.3 nan nan nan nan nan nan nan
nan nan nan nan nan nan nan nan nan nan nan nan nan nan nan nan nan nan nan nan nan nan nan nan nan nan nan nan 10.0 nan 6.6 6.2 nan nan nan 6.0 9.0 9.4 9.3 10.0 12.0 13.3 nan nan nan
nan nan nan nan nan nan nan nan nan nan nan nan nan nan nan nan nan nan nan nan nan nan nan nan nan nan nan nan 6.3 7.6 7.1 6.1 6.3 5.0 nan 7.9 9.6 9.2 10.0 10.7 12.2 12.4 12.2 12.5 12.2
nan nan nan nan nan nan nan nan nan nan nan nan nan nan nan nan nan nan nan nan nan nan nan nan nan 3.5 nan 3.8 4.7 5.4 6.4 6.8 5.7 nan 6.8 9.6 10.3 9.5 9.6 10.9 12.6 12.9 13.1 13.1 12.6
nan nan nan nan nan nan nan nan nan nan nan nan nan nan nan nan nan nan nan nan nan nan nan nan nan nan nan nan 5.1 5.3 6.0 6.3 5.5 nan 5.0 9.1 10.9 9.4 9.2 10.2 11.8 12.6 13.1 13.2 12.6
nan nan nan nan nan nan nan nan nan nan nan nan nan nan nan nan nan nan nan nan nan nan nan nan nan nan nan 5.0 5.3 5.3 5.9 5.9 6.3 nan nan nan 11.2 9.7 8.4 9.1 10.4 11.3 11.8 12.3 13.0
nan nan nan nan nan nan nan nan nan nan nan nan nan nan nan nan nan nan nan nan nan nan nan nan nan nan 3.3 5.0 5.5 6.3 5.2 5.4 5.8 6.4 7.0 6.0 8.8 12.0 8.9 9.8 12.1 12.3 12.4 12.5 12.8
nan nan nan nan nan nan nan nan nan nan 2.7 nan nan nan nan nan nan nan nan nan nan nan 6.0 5.6 nan nan 5.6 5.1 4.8 6.1 5.0 5.1 5.3 5.9 5.8 5.9 7.0 13.0 11.5 14.4 12.9 12.3 11.6 11.5 11.7
nan nan nan nan nan nan nan nan nan 2.5 2.9 nan nan nan nan nan nan nan nan nan nan nan nan 4.7 nan nan 5.0 nan nan 5.0 5.0 nan 5.1 6.0 8.4 16.7 10.0 18.5 15.3 14.8 11.4 10.7 11.3 11.7 11.1
nan nan nan nan nan nan nan nan 2.5 2.5 nan nan 2.7 nan nan nan nan nan nan nan 6.2 4.0 5.0 nan nan nan 10.0 5.7 nan 4.8 6.5 7.1 7.3 7.8 10.2 12.3 10.9 16.8 14.0 12.7 12.4 12.6 11.0 10.5 9.8
nan nan nan nan nan nan nan nan 2.5 nan nan nan nan nan nan nan nan nan nan nan 5.0 5.3 6.0 5.5 2.9 nan nan 5.2 6.3 5.6 6.9 9.4 15.6 10.0 11.4 11.3 16.4 15.3 12.3 11.1 11.0 10.9 11.2 10.8 10.9
nan nan nan nan nan nan nan 2.5 3.1 5.0 nan nan nan nan nan nan nan nan 10.0 11.7 5.8 6.1 10.2 8.8 8.7 nan nan nan 10.0 6.4 7.7 6.8 10.8 7.0 8.2 13.2 14.3 12.4 10.3 12.0 11.5 12.0 11.7 12.4 12.0
nan nan nan nan nan nan nan nan nan nan nan nan nan nan 7.2 nan 0.0 nan 10.0 9.1 6.1 5.7 3.1 6.6 10.7 nan nan nan 6.5 6.5 7.6 8.5 8.4 11.8 13.2 16.5 18.5 16.8 14.8 14.6 13.1 13.6 13.5 12.7 12.0
nan nan nan nan nan nan 3.6 3.1 nan nan nan nan 6.3 6.7 nan 7.9 7.4 10.0 10.0 9.1 5.8 5.0 5.0 5.9 9.3 6.8 10.0 5.8 5.7 5.6 7.3 7.1 6.9 7.9 12.2 15.1 18.3 14.4 14.1 14.7 14.8 14.1 13.2 13.3 12.9
nan 3.2 nan nan nan 3.3 3.2 nan nan nan nan nan nan 6.7 6.2 7.0 6.8 6.9 9.8 7.3 5.5 5.1 6.5 5.4 8.0 8.2 12.6 10.0 8.9 7.0 7.8 7.5 9.3 10.2 9.8 10.4 15.3 12.0 13.1 13.0 13.1 13.2 13.2 12.7 12.6
nan nan nan nan 3.7 3.6 nan nan nan nan nan nan 5.0 nan 5.4 7.2 9.1 5.0 5.5 nan nan 5.3 7.1 7.3 8.9 11.0 10.9 9.9 9.1 7.2 6.8 7.0 7.0 7.9 9.9 11.4 14.1 11.9 11.4 11.9 11.6 11.8 11.6 11.6 12.1
3.1 4.4 nan 6.0 nan 3.3 5.7 5.4 10.0 nan nan nan 4.0 5.8 5.7 6.0 6.6 7.3 5.3 5.0 nan nan nan nan 8.2 9.8 11.2 11.9 10.0 10.4 8.1 8.0 8.6 9.1 11.0 12.4 15.0 12.7 12.5 13.0 12.0 11.8 11.4 11.2 11.0
3.3 5.2 6.0 3.7 3.6 4.7 3.6 3.4 4.1 4.6 nan nan 4.7 6.6 8.7 8.0 5.2 4.6 5.0 0.0 nan nan 6.1 7.3 9.2 10.0 10.0 10.9 11.2 12.5 10.0 9.5 10.8 14.1 12.0 15.5 14.2 12.3 13.1 13.3 13.1 12.3 11.7 12.1 12.2
3.7 4.8 4.3 5.0 5.4 5.9 3.4 4.6 6.3 7.0 6.3 5.8 6.8 7.0 6.5 7.3 7.5 8.5 7.2 5.3 8.0 5.5 7.9 6.3 8.8 9.8 10.8 16.7 16.1 13.3 10.8 10.3 8.4 13.9 13.1 13.7 14.3 12.4 12.7 12.6 13.5 13.5 12.8 13.2 13.3
0.0 5.8 3.9 nan 5.3 5.5 4.9 6.5 6.3 6.3 5.4 6.0 7.0 5.7 5.2 5.7 5.4 5.9 7.1 8.4 8.3 8.3 8.1 7.4 7.9 9.0 10.5 15.2 11.7 11.2 15.5 15.7 14.1 13.8 13.9 12.4 14.1 13.3 13.5 13.7 13.6 13.5 14.2 14.8 14.1